Location: Plainartige
(45.6866°N, 1.7993°E)
Time: 15:32:38
(UTC+00:00)

Tiros 1 - Visible Passes

Search period start: 27 May 2022 00:00
Search period end: 06 June 2022 00:00
Orbit: 629 x 663 km, 48.4° (Epoch: 26 May)

Date Brightness Start Highest point End Pass type
(mag) Time Alt. Az. Time Alt. Az. Time Alt. Az.
27 May 7.0 01:20:00 40° WSW 01:21:38 85° SSE 01:26:20 10° ENE visible
27 May 7.6 02:59:25 10° W 03:04:02 61° N 03:08:41 10° E visible
28 May 7.8 00:06:22 40° ESE 00:06:22 40° ESE 00:09:50 10° ENE visible
28 May 7.3 01:43:58 17° W 01:47:28 71° N 01:52:08 10° ENE visible
28 May 7.6 03:25:18 10° WNW 03:29:56 66° N 03:34:38 10° E visible
28 May 9.4 22:52:38 12° E 22:52:38 12° E 22:53:00 10° E visible
29 May 6.9 00:30:14 61° SW 00:30:59 81° SSE 00:35:40 10° ENE visible
29 May 7.6 02:08:45 10° W 02:13:21 61° N 02:18:00 10° E visible
29 May 8.1 23:16:21 32° E 23:16:21 32° E 23:19:09 10° ENE visible
30 May 7.3 00:53:56 23° W 00:56:47 73° NNW 01:01:28 10° ENE visible
30 May 7.5 02:34:38 10° WNW 02:39:16 65° N 02:43:56 10° E visible
30 May 9.4 22:02:13 10° E 22:02:13 10° E 22:02:14 10° E visible
30 May 6.9 23:39:46 65° SW 23:40:21 77° SSE 23:45:00 10° ENE visible
31 May 7.6 01:18:05 10° W 01:22:41 62° N 01:27:19 10° ENE visible
31 May 7.2 03:00:27 10° WNW 03:05:08 83° NNE 03:09:50 10° ESE visible
31 May 7.7 22:25:01 37° ESE 22:25:01 37° ESE 22:28:27 10° ENE visible
01 Jun 7.2 00:02:29 16° W 00:06:08 75° NNW 00:10:47 10° ENE visible
01 Jun 7.5 01:43:59 10° WNW 01:48:36 64° N 01:53:15 10° E visible
01 Jun 7.1 03:26:14 10° WNW 03:30:52 66° SSW 03:35:31 10° SE visible
01 Jun 8.3 21:04:40 10° S 21:08:03 20° SE 21:11:28 10° E visible
01 Jun 6.9 22:45:06 10° WSW 22:49:42 73° SSE 22:54:19 10° ENE visible
02 Jun 7.5 00:27:24 10° W 00:32:01 62° N 00:36:38 10° ENE visible
02 Jun 7.2 02:09:48 10° WNW 02:14:27 80° NNE 02:19:09 10° ESE visible
02 Jun 7.5 21:29:11 10° SW 21:33:28 39° SE 21:37:46 10° ENE visible
02 Jun 7.2 23:10:50 10° WSW 23:15:27 77° NNW 23:20:07 10° ENE visible
03 Jun 7.5 00:53:19 10° WNW 00:57:55 63° N 01:02:32 10° E visible
03 Jun 7.0 02:35:35 10° WNW 02:40:12 70° SSW 02:44:52 10° ESE visible
03 Jun 8.4 20:14:14 10° S 20:17:26 19° SE 20:20:41 10° E visible
03 Jun 7.0 21:54:28 10° WSW 21:59:03 69° SSE 22:03:39 10° ENE visible
03 Jun 7.5 23:36:44 10° W 23:41:19 63° N 23:45:57 10° ENE visible
04 Jun 7.2 01:19:08 10° WNW 01:23:47 77° NNE 01:28:27 10° ESE visible
04 Jun 7.5 03:01:27 10° WNW 03:05:48 40° SSW 03:10:10 10° SE visible
04 Jun 7.6 20:38:37 10° SSW 20:42:49 36° SE 20:47:03 10° E visible
04 Jun 7.1 22:20:10 10° WSW 22:24:47 80° NNW 22:29:26 10° ENE visible
05 Jun 7.5 00:02:38 10° WNW 00:07:14 62° N 00:11:51 10° E visible
05 Jun 7.0 01:44:55 10° WNW 01:49:33 74° SSW 01:54:12 10° ESE visible
05 Jun 8.3 03:27:43 10° W 03:31:13 21° SW 03:34:44 10° S visible
05 Jun 7.0 21:03:49 10° SW 21:08:23 65° SSE 21:12:58 10° ENE visible
05 Jun 7.5 22:46:03 10° W 22:50:38 64° N 22:55:15 10° ENE visible
